Showing default

YAOGAN-36 05A, 57452

Orbit data source: Space-Track

YAOGAN-36 05A, 57452 is a payload satellite owned by PLA GAD (CN) in LEO that was launched on Wed, 26 Jul 2023 UTC via a CHANG ZHENG 2D launch vehicle from the Xichang Space Center, China (XSC). Payload-class satellites include a variety of spacecraft equipped with specific instruments for various scientific and technological missions. These include communications satellites like Starlink; space stations such as the ISS; scientific satellites like the Hubble; Earth observation satellites from companies like Planet Labs, Umbra, and HawkEye 360; GPS; miniature CubeSats for education and research; and military/defense satellites.

Loading next visibility...
Identifier
57452, 2023-106A
Orbit
LEO
Country
Flag of CNCN / PRC
Related business
Manufacturer
DFH
Mission
Operational Defense Sigint
Bus & Motor
Unknown
Mass
~300 kg wet, ~300 kg dry
Launch date (UTC)
2023-07-26 (3 years ago)
Launch vehicle
CHANG ZHENG 2D
Launch site
Xichang Space Center, China (XSC)
Object type
Payload
Rocket body
Debris
Shape & HBR
Box + 2 Pan, 2.5 m
Radar Cross Section
11.063 m², Large (>1 m²)

Expand to show TLE details & history
Last TLE update: 1 day ago

TLE from 1 day ago
0 YAOGAN-36 05A
1 57452U 23106A   26172.07571818  .00007658  00000-0  31920-3 0  9994
2 57452  35.0068  33.2146 0000819  32.7712 327.3053 15.22990609161741
Epoch: 2026-06-21T01:49Z
TLE epoch observation values (Epoch: 2026-06-21T01:49:02.050Z)
Latitude
-0.00005°
Longitude
96.67479°
Altitude
495.26 km
Speed
7.62 km/s
True Right ascension
02h 12m 51s
True Declination
0° 00' 00"
Sunlit
Object was in daylight at epoch
Visualization orbit readout
Latitude
Unknown
Longitude
Unknown
Altitude
Unknown
Speed
Unknown
Apparent Right ascension
Unknown
Apparent Declination
Unknown
Sunlit
N/A
Visualization observer readout
Local Sidereal Time
00:39:34
Azimuth
Unknown
Elevation
Unknown
Doppler factor
Unknown
Orbital elements
Apogee altitude
500.638 km
Perigee altitude
499.512 km
Semi-major axis
6,878.212 km
Eccentricity
0.00008
Inclination
35.0068°
RAAN
33.2146°
Arg. of periapsis
32.7712°
True anomaly
327.30023°
Mean anomaly
327.3053°
Eccentric anomaly
327.30277°
Mean motion
3.80478 °/min
Orbital period
94.62 mins
BSTAR
0.0003192
Loading maneuver chart data...
Computing Atmospheric mass density...
Loading historical data...
Loading historical data...
Loading historical data...
Loading historical data...
Loading historical data...
Loading historical data...
Loading historical data...
Other satellites on launch #106 in the year 2023 (2023-07-26 UTC)

Documentation

Showing up to 5 results
|